sat.trackr.live / text

‹ back to catalog

BEIDOU-2 IGSO-5 (C10)

NORAD 37948 · 2011-073A

PAYLOAD ACTIVE UNKNOWN

§ Identity

Operator
Country
PRC
Launch date
2011-12-01
Launch site
XICLF
Launch vehicle
Mass (kg)
RCS (m²)
12.59

Purposes: comms, nav

External: N2YO · Heavens-Above · Gunter

§ Orbital elements

Epoch: 2026-09-18T17:29:04.508160Z

Period
1,436.01 min
Inclination
47.5134°
Eccentricity
0.0116604
Mean motion
1.00277777 rev/d
Perigee alt
35,293.3 km
Apogee alt
36,276.6 km
Semi-major
42,163.1 km
B*
0.0000e+0
RAAN
270.3747°
Arg perigee
224.4140°
Mean anomaly
220.9898°
Rev number
5,407

§ Raw data

BEIDOU-2 IGSO-5 (C10)1 37948U 11073A   26261.72852440 -.00000129  00000+0  00000+0 0  99932 37948  47.5134 270.3747 0116604 224.4140 220.9898  1.00277777 54074

JSON: /api/v1/satellites/37948 · /tle

For live sub-satellite position, see the globe view (requires WebGL).

§ Visibility from observer

Set your observer location to see the next 7 days of passes ≥ 10°. The values pass through the URL so the page stays shareable.

No JS? Fill the form by hand. The geolocation button needs JavaScript.